LUCH-5V

Last updated on Sun Oct 06 2024 00:02:40 GMT+0000 (Coordinated Universal Time)

1 39727U 14023A 24279.55974618 -.00000257 00000+0 00000+0 0 9990 2 39727 3.5709 75.1805 0003742 156.0527 79.7739 1.00270553 38143
UTC large
Height (km)
Speed (km/s)
/
Latitude / Longitude
Inclination (degrees)
Orbital Period (minutes)
Azimuth
Elevation
Range (km)
Doppler Factor

Next 0 passes for location: London (51.5072 / 0.1276)

Sorry there are no passes over London.